Location: Waco, TX
(31.5480°N, 97.1670°W)
Time: 11:23:30
(UTC-05:00)

ISS - Pass Details

Date: 20 June 2018
Orbit: 402 x 406 km, 51.6° (Epoch: 22 June)

Event Time Altitude Azimuth Distance (km) Brightness Sun altitude
Rises 16:13:10 0° 333° (NNW) 2,323 0.2 53.2°
Reaches altitude 10° 16:16:04 10° 1° (N) 1,459 -0.9 52.6°
Maximum altitude 16:17:48 14° 33° (NNE) 1,265 -1.4 52.2°
Drops below altitude 10° 16:19:31 10° 65° (ENE) 1,455 -1.3 51.9°
Sets 16:22:24 0° 93° (E) 2,310 -0.4 51.2°
